Regional Weather Roundup
Issued by NWS

Home | Current Version | Previous Version | Text Only | Print | Product List | Glossary Off
Versions: 1 2 3 4 5 6 7 8 9 10 11 12 13 14 15 16 17 18 19 20 21 22 23 24 25 26 27

000
ASUS45 KSLC 182010
RWRUT

UTAH REGIONAL WEATHER ROUNDUP
NATIONAL WEATHER SERVICE SALT LAKE CITY UT
100 PM MST SAT NOV 18 2017

UTZ001>011-023>025-182100-

NORTHERN UTAH

CITY           SKY/WX    TMP DP  RH WIND       PRES   REMARKS
BRIGHAM CITY   MOSUNNY   39  23  51 SW6       30.44F
HILL AFB       PTSUNNY   36  23  60 E8        30.42F WCI  30
LOGAN            N/A     40  20  44 VRB5      30.42F
OGDEN          MOSUNNY   39  23  52 S6        30.43F WCI  35
SALT LAKE CITY MOSUNNY   41  21  44 VRB3      30.43F
TOOELE VALLEY  SUNNY     39  23  52 SW6       30.44F WCI  35
WENDOVER       SUNNY     38  20  48 E7        30.43F WCI  33
HEBER CITY       N/A     34  21  60 CALM      30.40F
WEST JORDAN    SUNNY     39  25  57 E7        30.43F WCI  34

$$

UTZ011>015-024>027-182100-

CENTRAL/NORTHEAST UTAH

CITY           SKY/WX    TMP DP  RH WIND       PRES   REMARKS
PROVO AIRPORT  SUNNY     38  21  50 NE3       30.43F
MOAB/CANYONLAN SUNNY     44   3  18 VRB3      30.39F
DELTA          SUNNY     36  18  48 CALM      30.42F
PRICE          SUNNY     37  10  32 S5        30.38F WCI  33
RICHFIELD      SUNNY     36  18  48 CALM      30.43F
ROOSEVELT      SUNNY     37  12  35 CALM      30.43F
VERNAL         SUNNY     38  11  32 E5        30.40F WCI  34

$$

UTZ013>016-019>022-027-182100-

SOUTHERN UTAH

CITY           SKY/WX    TMP DP  RH WIND       PRES   REMARKS
BRYCE CANYON   SUNNY     38   8  29 CALM      30.36F
CEDAR CITY     SUNNY     39  19  44 VRB5      30.36F
MILFORD        SUNNY     40  19  43 N8        30.39F WCI  34
ST GEORGE      CLEAR     53  12  19 N6        30.34F
HANKSVILLE     SUNNY     45  10  24 E5        30.44F
KANAB          SUNNY     50   9  18 NE7G14    30.38F
BLANDING         N/A     44   0  16 W3        30.43F

$$

REGIONAL REPORTS     COLORADO/ARIZONA

CITY           SKY/WX    TMP DP  RH WIND       PRES   REMARKS
CRAIG, CO      SUNNY     30  16  56 E9        30.39F WCI  22
GRAND JUNCTION SUNNY     41  18  39 E6        30.41F
RIFLE, CO      SUNNY     34  13  41 CALM      30.42F
MONTROSE, CO   SUNNY     37  18  46 SW6       30.41F WCI  32
CORTEZ, CO     SUNNY     44  17  33 S3        30.34F
COLORADO CITY    N/A     54  12  19 NE7       30.36F
PAGE, AZ       SUNNY     48  10  21 VRB3      30.38F
GRAND CANYON   SUNNY     46   2  16 NE12      30.34F
KINGMAN, AZ    SUNNY     59  15  18 N13       30.27F
FLAGSTAFF, AZ  SUNNY     44  -1  15 E15G21    30.33F

$$

REGIONAL REPORTS    NEVADA/IDAHO/WYOMING

CITY           SKY/WX    TMP DP  RH WIND       PRES   REMARKS
LAS VEGAS, NV  SUNNY     58  12  16 NE6       30.32F
ELY, NY        SUNNY     40  12  32 VRB3      30.35F
ELKO, NV       SUNNY     36  21  54 E7        30.36F WCI  30
POCATELLO, ID  MOSUNNY   40  18  41 VRB5      30.40F
BURLEY, ID     SUNNY     41  18  39 SW9       30.38F
FORT BRIDGER,    N/A     27  17  68 W13       30.38F WCI  16
EVANSTON, WY   SUNNY     22  19  89 SW6       30.37F WCI  14
ROCK SPRINGS,  MOSUNNY   24  16  71 SW17      30.34S WCI  11

$$




USA.gov is the U.S. government's official web portal to all federal, state and local government web resources and services.